Retour au catalogue

GLOBALSTAR M056

ActifCommunicationsLEO
NORAD 25945·PAYLOAD·🇺🇸 United States

Lancé Oct 18, 1999 depuis Baikonur Cosmodrome

Loading…

Prochains Passages (prochaines 24 heures)

TLE

FraisSource: Space-Track

Époque: Sep 14, 2026, 09:27 UTC

1 25945U 99058C   26257.39401480 -.00000038  00000-0  57806-3 0  9998
2 25945  51.9971  48.6904 0001142  30.2687 344.5374 12.04789425217376

Suivez GLOBALSTAR M056 en temps réel avec AllMySat

Download on the App Store